Stations météo

réclame
Mon MeteoGroup
J6-A, Pays-Bas (6211): Température de l'air & dewpoint: 14.04.2018 22:00:00 - 20.04.2018 22:00:00 (CEST)J6-A, Pays-Bas (6211): Vitesse du vent & gusts: 14.04.2018 22:00:00 - 20.04.2018 22:00:00 (CEST)J6-A, Pays-Bas (6211): Direction du vent: 14.04.2018 22:00:00 - 20.04.2018 22:00:00 (CEST)J6-A, Pays-Bas (6211): reduced air pressure: 14.04.2018 22:00:00 - 20.04.2018 22:00:00 (CEST)J6-A, Pays-Bas (6211): visibility: 14.04.2018 22:00:00 - 20.04.2018 22:00:00 (CEST)
Date & Time tt [°C] td [°C] ff [km/h] ff [knt] fx [km/h] fx [knt] dd ppp [hPa] vv [km]
20.04.2018 22:00:00 8,3 7,2 16 9 - - NNE 1023,8 28
20.04.2018 21:00:00 8,3 7,2 22 12 29 16 N 1023,3 10
20.04.2018 20:00:00 8,4 7,3 22 12 29 16 NW 1022,9 16
20.04.2018 19:00:00 8,3 7,2 29 16 32 18 NW 1022,8 10
20.04.2018 18:00:00 8,1 6,9 29 16 36 19 NW 1022,8 18
20.04.2018 17:00:00 8,7 7,2 32 18 - - NW 1022,7 18
20.04.2018 16:00:00 8,8 7,4 32 18 36 19 NW 1022,8 10
20.04.2018 15:00:00 8,8 7,4 32 18 40 21 NW 1022,7 6
20.04.2018 14:00:00 8,8 6,6 37 20 40 21 NW 1022,4 5
20.04.2018 13:00:00 9,6 6,7 37 20 36 19 WNW 1022,2 4,8
20.04.2018 12:00:00 9,3 6,3 22 12 32 18 W 1021,8 5
20.04.2018 11:00:00 9,7 6,9 26 14 36 19 WSW 1021,5 3,8
20.04.2018 10:00:00 12,3 8,1 9 5 11 6 WSW 1021,0 5
20.04.2018 09:00:00 10,8 7,2 13 7 22 12 W 1021,2 5
20.04.2018 08:00:00 10,4 6,8 18 10 32 18 W 1021,3 4,2
20.04.2018 07:00:00 11,0 6,6 29 16 36 19 WSW 1021,2 5
20.04.2018 06:00:00 10,7 6,2 35 19 36 19 SW 1021,2 5
20.04.2018 05:00:00 11,5 6,6 22 12 25 14 SSW 1021,5 8
20.04.2018 04:00:00 13,0 6,5 15 8 14 8 S 1021,9 9
20.04.2018 03:00:00 14,3 6,7 11 6 11 6 S 1021,9 10
20.04.2018 02:00:00 14,5 7,2 9 5 11 6 S 1022,7 9
20.04.2018 01:00:00 13,7 7,4 7 4 11 6 SSE 1023,2 10
20.04.2018 00:00:00 14,1 7,5 7 4 11 6 SE 1023,4 9
19.04.2018 23:00:00 13,4 7,5 7 4 11 6 SSE 1024,0 10
19.04.2018 22:00:00 13,9 6,9 11 6 11 6 S 1024,1 10
19.04.2018 21:00:00 12,5 7,6 7 4 14 8 S 1023,9 10
19.04.2018 20:00:00 13,4 7,7 11 6 22 12 SSW 1024,0 8
19.04.2018 19:00:00 14,0 7,7 15 8 18 10 S 1024,3 9
19.04.2018 18:00:00 13,3 7,5 16 9 18 10 SE 1024,3 10
19.04.2018 17:00:00 13,7 7,4 18 10 22 12 S 1024,5 10
19.04.2018 16:00:00 14,3 7,5 22 12 25 14 S 1025,0 9
19.04.2018 15:00:00 13,3 7,3 28 15 29 16 S 1025,5 10
19.04.2018 14:00:00 12,2 6,9 31 17 29 16 S 1025,7 10
19.04.2018 13:00:00 10,5 6,8 26 14 36 19 S 1026,1 8
19.04.2018 12:00:00 10,8 6,9 41 22 36 19 S 1025,7 9
19.04.2018 11:00:00 11,2 7,1 41 22 36 19 S 1025,5 9
19.04.2018 10:00:00 11,4 6,9 41 22 40 21 SSE 1025,4 9
19.04.2018 09:00:00 11,6 7,0 44 24 43 23 SSE 1025,3 10
19.04.2018 08:00:00 12,0 7,1 46 25 - - SSE 1025,2 10
19.04.2018 07:00:00 12,6 7,3 36 19 43 23 SE 1025,3 12
19.04.2018 06:00:00 13,8 7,4 48 26 43 23 SE 1025,4 10
19.04.2018 05:00:00 13,4 7,9 36 19 43 23 SE 1026,1 15
19.04.2018 04:00:00 13,5 8,6 40 21 50 27 SE 1026,3 17
19.04.2018 03:00:00 13,0 7,9 55 30 50 27 ESE 1026,8 10
19.04.2018 02:00:00 13,1 7,8 46 25 43 23 ESE 1027,9 10
19.04.2018 01:00:00 14,8 7,5 42 23 40 21 ESE 1027,7 10
19.04.2018 00:00:00 13,5 8,1 37 20 40 21 ESE 1027,7 10
18.04.2018 23:00:00 12,7 7,8 28 15 25 14 SE 1028,1 10
18.04.2018 22:00:00 11,9 7,9 28 15 25 14 SSE 1028,5 10
18.04.2018 21:00:00 11,5 8,1 29 16 29 16 S 1028,7 10
18.04.2018 20:00:00 11,8 8,1 28 15 29 16 S 1028,5 10
18.04.2018 19:00:00 12,5 8,5 31 17 29 16 S 1028,8 10
18.04.2018 18:00:00 10,7 7,6 34 18 29 16 S 1028,9 10
18.04.2018 17:00:00 10,8 7,8 31 17 32 18 S 1029,0 10
18.04.2018 16:00:00 10,4 7,5 28 15 32 18 S 1029,3 10
18.04.2018 15:00:00 9,9 7,1 37 20 36 19 SSW 1029,5 10
18.04.2018 14:00:00 9,8 6,9 42 23 36 19 S 1029,1 10
18.04.2018 13:00:00 9,4 6,8 39 21 40 21 S 1029,1 10
18.04.2018 12:00:00 9,5 6,6 39 21 32 18 SSW 1028,8 10
18.04.2018 11:00:00 10,1 6,9 35 19 36 19 SSW 1028,6 10
18.04.2018 10:00:00 9,4 6,6 42 23 40 21 SSW 1028,0 10
18.04.2018 09:00:00 9,2 6,2 44 24 43 23 SSW 1027,7 10
18.04.2018 08:00:00 9,9 6,3 41 22 47 25 SSW 1027,2 10
18.04.2018 07:00:00 9,3 6,4 50 27 50 27 SSW 1026,8 10
18.04.2018 06:00:00 9,5 6,3 50 27 50 27 SW 1026,5 10
18.04.2018 05:00:00 9,8 6,5 50 27 47 25 SSW 1025,9 10
18.04.2018 04:00:00 9,0 6,2 48 26 47 25 SSW 1025,5 10
18.04.2018 03:00:00 9,4 6,2 46 25 43 23 SSW 1024,9 10
18.04.2018 02:00:00 9,4 6,1 46 25 43 23 SSW 1024,6 10
18.04.2018 01:00:00 9,4 6,1 46 25 47 25 SSW 1023,7 10
18.04.2018 00:00:00 9,8 6,1 52 28 50 27 SSW 1023,6 10
17.04.2018 23:00:00 9,9 5,9 55 30 50 27 SSW 1023,6 10
17.04.2018 22:00:00 9,7 5,6 43 23 50 27 S 1023,2 16
17.04.2018 21:00:00 9,5 5,4 50 27 50 27 S 1022,5 10
17.04.2018 20:00:00 9,5 4,8 52 28 50 27 S 1021,0 10
17.04.2018 19:00:00 8,9 4,7 50 27 50 27 S 1021,1 10
17.04.2018 18:00:00 9,1 5,1 48 26 47 25 S 1019,6 10
17.04.2018 17:00:00 9,3 5,3 54 29 50 27 S 1022,2 10
17.04.2018 16:00:00 9,0 5,4 55 30 54 29 S 1025,1 10
17.04.2018 15:00:00 8,7 5,2 43 23 47 25 S 1019,9 14
17.04.2018 14:00:00 8,6 5,1 50 27 47 25 S 1022,2 10
17.04.2018 13:00:00 8,4 5,4 48 26 47 25 S 1021,4 10
17.04.2018 12:00:00 8,3 5,6 48 26 47 25 S 1020,9 10
17.04.2018 11:00:00 8,1 5,9 46 25 47 25 S 1019,5 10
17.04.2018 10:00:00 8,3 5,9 48 26 47 25 S 1021,1 9
17.04.2018 09:00:00 8,3 5,9 46 25 47 25 SSE 1020,5 10
17.04.2018 08:00:00 8,3 5,0 50 27 47 25 S 1020,1 10
17.04.2018 07:00:00 8,1 4,8 48 26 43 23 S 1020,3 10
17.04.2018 06:00:00 7,4 5,4 39 21 40 21 S 1019,6 10
17.04.2018 05:00:00 7,2 5,2 35 19 32 18 S 1018,4 10
17.04.2018 04:00:00 7,4 4,8 34 18 43 23 SSW 1017,9 10
17.04.2018 03:00:00 7,7 4,7 44 24 43 23 SSW 1018,0 10
17.04.2018 02:00:00 8,1 4,8 48 26 47 25 SSW 1018,3 10
17.04.2018 01:00:00 8,0 5,1 35 19 36 19 SSW 1018,9 10
17.04.2018 00:00:00 7,8 5,3 31 17 32 18 SSW 1017,6 10
16.04.2018 23:00:00 7,8 5,1 34 18 36 19 SSW 1017,0 10
16.04.2018 22:00:00 7,7 5,2 34 18 36 19 SSW 1017,6 10
16.04.2018 21:00:00 7,3 5,5 26 14 25 14 SSW 1015,3 10
16.04.2018 20:00:00 7,4 5,6 28 15 32 18 SSW 1013,6 10
16.04.2018 19:00:00 7,8 5,6 39 21 36 19 SSW 1013,1 10
16.04.2018 18:00:00 7,5 6,0 34 18 32 18 SSW 1014,2 10
16.04.2018 17:00:00 7,6 6,1 31 17 36 19 SSW 1014,4 10
16.04.2018 16:00:00 7,5 6,1 29 16 32 18 SSW 1015,7 10
16.04.2018 15:00:00 7,3 6,1 28 15 32 18 SSW 1014,3 9
16.04.2018 14:00:00 7,0 6,0 35 19 32 18 SSW 1013,3 8
16.04.2018 13:00:00 6,9 6,0 29 16 36 19 SSW 1013,1 8
16.04.2018 12:00:00 7,2 6,2 28 15 36 19 SSW 1012,4 9
16.04.2018 11:00:00 7,2 6,1 34 18 36 19 SSW 1014,0 10
16.04.2018 10:00:00 7,1 6,2 37 20 40 21 SSW 1011,6 10
16.04.2018 09:00:00 7,1 6,2 29 16 36 19 SSW 1010,6 10
16.04.2018 08:00:00 7,1 6,4 37 20 40 21 SSW 1009,8 9
16.04.2018 07:00:00 7,2 6,5 31 17 43 23 SSW 1009,1 7
16.04.2018 06:00:00 7,3 6,8 37 20 43 23 SSW 1008,6 5
16.04.2018 05:00:00 7,5 7,0 35 19 36 19 SSW 1008,7 3,0
16.04.2018 04:00:00 7,9 7,6 37 20 36 19 S 1008,5 2,1
16.04.2018 03:00:00 7,7 7,5 34 18 36 19 SSE 1008,4 1,7
16.04.2018 02:00:00 7,8 7,7 37 20 36 19 SSE 1008,3 3,7
16.04.2018 01:00:00 7,5 7,5 34 18 32 18 SSE 1008,3 3,6
16.04.2018 00:00:00 7,3 7,3 29 16 32 18 SSE 1008,4 1,8
15.04.2018 23:00:00 6,4 6,4 28 15 29 16 SE 1008,8 0,3
15.04.2018 22:00:00 6,5 6,5 28 15 25 14 ESE 1009,1 0,2
15.04.2018 21:00:00 7,0 7,0 28 15 32 18 SE 1009,0 0,2
15.04.2018 20:00:00 7,5 7,5 28 15 32 18 ESE 1008,6 1,4
15.04.2018 19:00:00 7,4 7,2 34 18 32 18 ESE 1008,9 0,5
15.04.2018 18:00:00 7,5 7,3 34 18 32 18 ESE 1009,2 0,8
15.04.2018 17:00:00 7,1 6,5 31 17 29 16 ESE 1009,9 1,0
15.04.2018 16:00:00 7,5 6,6 29 16 29 16 ESE 1010,6 3,5
15.04.2018 15:00:00 7,9 7,1 31 17 32 18 ESE 1011,0 3,6
15.04.2018 14:00:00 7,6 6,7 34 18 32 18 ESE 1011,5 4,2
15.04.2018 13:00:00 7,7 6,8 31 17 29 16 ESE 1011,9 4,1
15.04.2018 12:00:00 7,4 6,9 29 16 29 16 ESE 1012,4 3,6
15.04.2018 11:00:00 6,8 6,3 29 16 29 16 ESE 1012,8 2,0
15.04.2018 10:00:00 7,1 6,1 28 15 29 16 ESE 1013,2 4,4
15.04.2018 09:00:00 6,8 6,4 31 17 29 16 ESE 1013,7 5
15.04.2018 08:00:00 6,7 6,7 26 14 29 16 ESE 1014,1 3,7
15.04.2018 07:00:00 6,2 6,2 15 8 22 12 E 1014,3 2,5
15.04.2018 06:00:00 6,2 6,0 11 6 22 12 E 1014,5 0,3
15.04.2018 05:00:00 6,5 6,5 9 5 22 12 SE 1015,1 1,4
15.04.2018 04:00:00 6,7 6,2 9 5 11 6 SE 1015,6 3,8
15.04.2018 03:00:00 6,8 5,6 8 4 11 6 SSE 1016,2 5
15.04.2018 02:00:00 7,1 5,6 9 5 11 6 S 1016,8 5
15.04.2018 01:00:00 7,4 5,3 5 3 7 4 SSW 1016,9 7
15.04.2018 00:00:00 7,3 5,3 9 5 11 6 S 1016,9 7
14.04.2018 23:00:00 7,3 5,6 7 4 11 6 S 1017,5 8
14.04.2018 22:00:00 7,2 5,5 8 4 7 4 SSW 1017,7 7

tt = Température de l'air
td = dewpoint
ff = Vitesse du vent
fx = gusts
dd = Direction du vent
ppp = reduced air pressure
vv = visibility

stations d'obs. à proximité